Regional Weather Roundup
Issued by NWS Charleston, WV

Home | Current Version | Previous Version | Text Only | Print | Product List | Glossary Off
Versions: 1 2 3 4 5 6 7 8 9 10 11 12 13 14 15 16 17 18 19 20 21 22 23 24 25 26 27 28

000
ASUS41 KRLX 172110
RWRRLX
West Virginia Regional Weather Roundup
National Weather Service Charleston WV
400 PM EST WED JAN 17 2018

Note: "fair" indicates few or no clouds below 12,000 feet with no
significant weather and/or obstructions to visibility.

WVZ003-172200-
Northern Panhandle of West Virginia

CITY           SKY/WX    TMP DP  RH WIND       PRES   REMARKS
WHEELING         N/A     12   3  67 W7        30.40S WCI   1
$$

WVZ009-172200-
Northwest West Virginia

CITY           SKY/WX    TMP DP  RH WIND       PRES   REMARKS
PARKERSBURG      N/A     12   2  64 S7        30.50F WCI   1
$$

WVZ006-172200-
Western West Virginia

CITY           SKY/WX    TMP DP  RH WIND       PRES   REMARKS
HUNTINGTON     CLOUDY    13   4  67 S5        30.50F WCI   5
$$

WVZ015-172200-
West Central West Virginia

CITY           SKY/WX    TMP DP  RH WIND       PRES   REMARKS
CHARLESTON     FLURRIES  13   4  67 W6        30.48S WCI   4
$$

WVZ022-031-172200-
North Central West Virginia

CITY           SKY/WX    TMP DP  RH WIND       PRES   REMARKS
CLARKSBURG     CLOUDY    13   4  67 W6        30.42S WCI   4
MORGANTOWN     CLOUDY    11   3  70 SW6       30.41S WCI   1
$$

WVZ025-035-042-045-172200-
Southern West Virginia

CITY           SKY/WX    TMP DP  RH WIND       PRES   REMARKS
BECKLEY        CLOUDY     9   2  73 N13       30.28S WCI  -7
LOGAN          PTSUNNY   12   3  67 CALM      30.40S
BLUEFIELD      PTSUNNY   11   3  70 NW9G16    30.24R WCI  -2
LEWISBURG      CLOUDY    19   4  54 NW12      30.25R WCI   6
$$

WVZ047-172200-
Northern Mountains of West Virginia

CITY           SKY/WX    TMP DP  RH WIND       PRES   REMARKS
ELKINS         CLOUDY    11   3  70 NW9       30.33R WCI  -2
$$

WVZ052-172200-
Eastern Panhandle of West Virginia

CITY           SKY/WX    TMP DP  RH WIND       PRES   REMARKS
MARTINSBURG      N/A     24   5  44 N9        30.31F
PETERSBURG       N/A     24   5  45 NW10      30.33R
$$




USA.gov is the U.S. government's official web portal to all federal, state and local government web resources and services.